KC5AYO Weather Reports


Display with metric or nautical units.
time (UTC)temp
F
wind
direction
speed
MPH
gust
MPH
rain 1hr
in
rain 24hr
in
rain mn
in
humidity
%
barometer
mb
20260508004038 56 273 0.0 0.0 0.00 0.00 0.00 48 1013.8
20260508003537 57 273 0.0 0.0 0.00 0.00 0.00 46 1013.8
20260508003034 57 275 0.0 0.0 0.00 0.00 0.00 48 1013.7
20260508002534 57 275 0.0 0.0 0.00 0.00 0.00 46 1013.7
20260508002035 58 275 0.0 0.0 0.00 0.00 0.00 46 1013.7
20260508001558 58 275 0.0 2.0 0.00 0.00 0.00 46 1013.6
20260508001037 59 275 0.0 2.0 0.00 0.00 0.00 45 1013.6
20260508000533 60 169 0.0 2.0 0.00 0.00 0.00 44 1013.5
20260508000033 60 271 0.0 2.0 0.00 0.00 0.00 42 1013.4
20260507235533 60 299 0.0 2.0 0.00 0.00 0.00 41 1013.4
20260507235032 60 281 0.0 2.0 0.00 0.00 0.00 44 1013.4
20260507234535 60 281 0.0 2.0 0.00 0.00 0.00 42 1013.5
20260507234056 60 176 0.0 2.0 0.00 0.00 0.00 37 1013.4
20260507233533 61 256 0.0 2.0 0.00 0.00 0.00 42 1013.3
20260507233032 61 182 0.0 4.0 0.00 0.00 0.00 42 1013.3
20260507232534 61 297 0.0 4.0 0.00 0.00 0.00 42 1013.3
20260507232032 61 265 0.0 3.0 0.00 0.00 0.00 40 1013.3
20260507231536 61 323 0.0 2.0 0.00 0.00 0.00 35 1013.3
20260507231032 62 294 0.0 2.0 0.00 0.00 0.00 35 1013.4
20260507230532 62 103 0.0 3.0 0.00 0.00 0.00 37 1013.4
20260507230032 62 298 0.0 3.0 0.00 0.00 0.00 38 1013.3
20260507225531 62 277 0.0 2.0 0.00 0.00 0.00 36 1013.4
20260507225032 62 282 0.0 2.0 0.00 0.00 0.00 39 1013.3
20260507224541 62 309 0.0 2.0 0.00 0.00 0.00 38 1013.4
20260507224031 62 274 0.0 2.0 0.00 0.00 0.00 40 1013.3
20260507223531 62 302 0.0 3.0 0.00 0.00 0.00 41 1013.4
20260507223030 62 300 0.0 3.0 0.00 0.00 0.00 35 1013.5
20260507222530 61 211 0.0 2.0 0.00 0.00 0.00 38 1013.5
20260507222029 61 300 0.0 2.0 0.00 0.00 0.00 41 1013.5
20260507221529 61 289 0.0 2.0 0.00 0.00 0.00 38 1013.5
20260507221028 61 277 0.0 3.0 0.00 0.00 0.00 34 1013.4
20260507220528 61 249 0.0 3.0 0.00 0.00 0.00 41 1013.4
20260507220039 61 292 0.0 2.0 0.00 0.00 0.00 40 1013.4
20260507215530 61 146 0.0 2.0 0.00 0.00 0.00 40 1013.4
20260507215028 61 271 0.0 2.0 0.00 0.00 0.00 39 1013.3
20260507214535 61 267 0.0 2.0 0.00 0.00 0.00 36 1013.2
20260507214028 61 194 0.0 2.0 0.00 0.00 0.00 33 1013.2
20260507213528 61 276 0.0 2.0 0.00 0.00 0.00 33 1013.2
20260507213032 61 293 0.0 2.0 0.00 0.00 0.00 37 1013.3
20260507212526 61 223 0.0 3.0 0.00 0.00 0.00 35 1013.3
20260507212026 62 250 0.0 3.0 0.00 0.00 0.00 37 1013.3
20260507211525 61 200 1.0 3.0 0.00 0.00 0.00 34 1013.4
20260507211024 61 199 0.0 2.0 0.00 0.00 0.00 37 1013.5
20260507210522 61 219 0.0 2.0 0.00 0.00 0.00 41 1013.6
20260507210022 60 288 0.0 3.0 0.00 0.00 0.00 42 1013.6
20260507205522 60 271 0.0 3.0 0.00 0.00 0.00 36 1013.7
20260507205021 61 306 0.0 4.0 0.00 0.00 0.00 36 1013.9
20260507204521 60 301 1.0 4.0 0.00 0.00 0.00 36 1013.7
20260507204024 60 55 0.0 2.0 0.00 0.00 0.00 38 1013.7
20260507203520 60 82 0.0 4.0 0.00 0.00 0.00 34 1013.8
20260507203024 60 328 0.0 4.0 0.00 0.00 0.00 37 1013.9
20260507202519 60 312 0.0 2.0 0.00 0.00 0.00 37 1013.9
20260507202020 60 301 0.0 2.0 0.00 0.00 0.00 38 1013.9
20260507201519 60 81 0.0 5.0 0.00 0.00 0.00 36 1013.9
20260507201019 60 360 1.0 5.0 0.00 0.00 0.00 36 1014.0
20260507200521 60 322 0.0 6.0 0.00 0.00 0.00 36 1014.0
20260507200020 60 5 1.0 6.0 0.00 0.00 0.00 36 1014.1
20260507195518 61 324 1.0 8.0 0.00 0.00 0.00 36 1014.1
20260507195018 61 17 1.0 8.0 0.00 0.00 0.00 35 1013.9
20260507194517 61 114 0.0 2.0 0.00 0.00 0.00 34 1014.0
20260507194016 61 328 0.0 2.0 0.00 0.00 0.00 40 1014.1
20260507193515 61 308 0.0 5.0 0.00 0.00 0.00 40 1014.2
20260507193015 60 327 1.0 5.0 0.00 0.00 0.00 34 1014.4
20260507192513 61 355 1.0 4.0 0.00 0.00 0.00 40 1014.4
20260507192012 60 296 0.0 4.0 0.00 0.00 0.00 39 1014.4
20260507191513 59 304 0.0 5.0 0.00 0.00 0.00 41 1014.4
20260507191013 60 346 2.0 5.0 0.00 0.00 0.00 36 1014.4
20260507190512 59 85 0.0 3.0 0.00 0.00 0.00 44 1014.4
20260507190011 60 360 1.0 3.0 0.00 0.00 0.00 44 1014.5
20260507185513 59 319 0.0 4.0 0.00 0.00 0.00 41 1014.5
20260507185010 58 84 0.0 5.0 0.00 0.00 0.00 41 1014.6
20260507184510 59 13 1.0 5.0 0.00 0.00 0.00 41 1014.5
20260507184015 59 13 1.0 3.0 0.00 0.00 0.00 40 1014.5
20260507183510 59 92 0.0 3.0 0.00 0.00 0.00 38 1014.6
20260507183011 60 301 1.0 3.0 0.00 0.00 0.00 37 1014.6
20260507182509 59 5 0.0 4.0 0.00 0.00 0.00 39 1014.7
20260507182009 59 84 1.0 4.0 0.00 0.00 0.00 38 1014.6
20260507181507 59 29 0.0 3.0 0.00 0.00 0.00 40 1014.7
20260507181007 58 80 1.0 3.0 0.00 0.00 0.00 41 1014.7
20260507180508 58 82 0.0 3.0 0.00 0.00 0.00 39 1014.7
20260507180008 58 72 1.0 3.0 0.00 0.00 0.00 42 1014.8
20260507175504 58 78 1.0 4.0 0.00 0.00 0.00 44 1014.9
20260507175004 58 32 1.0 4.0 0.00 0.00 0.00 38 1015.2
20260507174504 59 5 1.0 4.0 0.00 0.00 0.00 39 1015.2
20260507174004 58 327 0.0 3.0 0.00 0.00 0.00 38 1015.1
20260507173503 58 82 0.0 3.0 0.00 0.00 0.00 40 1015.2
20260507173100 58 360 0.0 4.0 0.00 0.00 0.00 41 1015.2
20260507172603 58 329 0.0 4.0 0.00 0.00 0.00 38 1015.3
20260507172059 58 338 0.0 3.0 0.00 0.00 0.00 38 1015.3
20260507171603 58 79 0.0 4.0 0.00 0.00 0.00 39 1015.5
20260507171058 57 300 1.0 4.0 0.00 0.00 0.00 41 1015.6
20260507170556 57 355 0.0 4.0 0.00 0.00 0.00 38 1015.6
20260507170055 56 9 1.0 4.0 0.00 0.00 0.00 39 1015.7
20260507165554 57 355 1.0 4.0 0.00 0.00 0.00 45 1015.7
20260507165053 56 9 1.0 4.0 0.00 0.00 0.00 46 1015.8
20260507164553 56 351 0.0 6.0 0.00 0.00 0.00 45 1015.8
20260507164056 56 81 2.0 7.0 0.00 0.00 0.00 47 1015.8
20260507163553 56 59 1.0 4.0 0.00 0.00 0.00 41 1015.8
20260507163054 56 9 0.0 4.0 0.00 0.00 0.00 46 1015.9
20260507162551 55 9 1.0 4.0 0.00 0.00 0.00 43 1015.8
20260507162051 55 360 1.0 4.0 0.00 0.00 0.00 41 1015.9
20260507161550 55 60 1.0 4.0 0.00 0.00 0.00 43 1016.0
20260507161048 55 134 0.0 4.0 0.00 0.00 0.00 41 1016.0
20260507160548 55 355 0.0 4.0 0.00 0.00 0.00 41 1016.0
20260507160052 55 81 1.0 4.0 0.00 0.00 0.00 41 1016.0
20260507155546 54 360 1.0 4.0 0.00 0.00 0.00 43 1016.0
20260507155046 54 245 1.0 4.0 0.00 0.00 0.00 41 1016.0
20260507154548 54 319 0.0 4.0 0.00 0.00 0.00 45 1016.1
20260507154045 54 360 1.0 4.0 0.00 0.00 0.00 41 1016.2
20260507153545 54 9 0.0 4.0 0.00 0.00 0.00 44 1016.1
20260507153050 54 9 1.0 4.0 0.00 0.00 0.00 44 1016.2
20260507152544 54 217 0.0 3.0 0.00 0.00 0.00 44 1016.2
20260507152043 53 350 0.0 3.0 0.00 0.00 0.00 45 1016.2
20260507151541 53 271 0.0 4.0 0.00 0.00 0.00 42 1016.2
20260507151042 53 337 0.0 5.0 0.00 0.00 0.00 41 1016.1
20260507150541 53 27 0.0 5.0 0.00 0.00 0.00 44 1016.1
20260507150141 53 76 0.0 5.0 0.00 0.00 0.00 45 1016.0
20260507145540 53 318 1.0 5.0 0.00 0.00 0.00 41 1016.1
20260507145039 53 22 0.0 4.0 0.00 0.00 0.00 45 1016.0
20260507144539 53 19 0.0 4.0 0.00 0.00 0.00 46 1016.2
20260507144039 52 349 1.0 4.0 0.00 0.00 0.00 47 1016.1
20260507143538 52 11 0.0 3.0 0.00 0.00 0.00 45 1016.1
20260507143037 52 12 0.0 3.0 0.00 0.00 0.00 46 1016.1
20260507142537 52 5 0.0 3.0 0.00 0.00 0.00 47 1016.1
20260507142036 52 341 0.0 2.0 0.00 0.00 0.00 50 1016.1
20260507141535 52 323 0.0 2.0 0.00 0.00 0.00 47 1016.0
20260507141034 51 300 0.0 2.0 0.00 0.00 0.00 52 1016.0
20260507140532 51 300 0.0 3.0 0.00 0.00 0.00 51 1016.0
20260507140032 51 305 1.0 3.0 0.00 0.00 0.00 49 1016.0
20260507135534 51 360 0.0 2.0 0.00 0.00 0.00 53 1016.0
20260507135030 50 279 0.0 2.0 0.00 0.00 0.00 54 1016.0
20260507134529 50 325 0.0 2.0 0.00 0.00 0.00 58 1016.1
20260507134027 50 282 0.0 2.0 0.00 0.00 0.00 57 1016.0
20260507133527 49 282 0.0 2.0 0.00 0.00 0.00 57 1016.1
20260507133026 49 309 0.0 2.0 0.00 0.00 0.00 59 1016.1
20260507132524 49 294 0.0 2.0 0.00 0.00 0.00 58 1016.1
20260507132023 48 315 0.0 2.0 0.00 0.00 0.00 62 1016.0
20260507131530 48 338 0.0 2.0 0.00 0.00 0.00 65 1016.0
20260507131022 48 341 0.0 2.0 0.00 0.00 0.00 64 1016.1
20260507130521 48 312 0.0 1.0 0.00 0.00 0.00 64 1016.0
20260507130019 47 312 0.0 1.0 0.00 0.00 0.00 64 1016.0
20260507125518 47 316 0.0 2.0 0.00 0.00 0.00 68 1016.0
20260507125018 47 318 0.0 2.0 0.00 0.00 0.00 67 1016.0
20260507124516 46 314 0.0 2.0 0.00 0.00 0.00 71 1016.1
20260507124016 46 315 0.0 2.0 0.00 0.00 0.00 70 1016.0
20260507123515 46 325 0.0 2.0 0.00 0.00 0.00 71 1016.0
20260507123013 45 316 0.0 2.0 0.00 0.00 0.00 73 1016.0
20260507122512 44 282 0.0 2.0 0.00 0.00 0.00 76 1016.0
20260507122011 44 281 0.0 2.0 0.00 0.00 0.00 80 1015.9
20260507121511 43 269 0.0 0.0 0.00 0.00 0.00 80 1015.8
20260507121012 42 266 0.0 0.0 0.00 0.00 0.00 81 1015.9
20260507120510 42 266 0.0 0.0 0.00 0.00 0.00 84 1015.8
20260507120023 41 266 0.0 0.0 0.00 0.00 0.00 85 1015.8
20260507115509 41 266 0.0 0.0 0.00 0.00 0.00 87 1015.9
20260507115008 40 266 0.0 0.0 0.00 0.00 0.00 88 1016.0
20260507114509 40 266 0.0 0.0 0.00 0.00 0.00 87 1015.7
20260507114012 39 266 0.0 0.0 0.00 0.00 0.00 86 1015.7
20260507113508 39 266 0.0 0.0 0.00 0.00 0.00 87 1015.7
20260507113007 39 266 0.0 0.0 0.00 0.00 0.00 87 1015.8
20260507112510 39 266 0.0 0.0 0.00 0.00 0.00 86 1015.8
20260507112007 38 266 0.0 0.0 0.00 0.00 0.00 86 1015.8
20260507111507 38 266 0.0 0.0 0.00 0.00 0.00 86 1015.8
20260507111004 38 266 0.0 0.0 0.00 0.00 0.00 86 1015.7
20260507110504 38 269 0.0 0.0 0.00 0.00 0.00 86 1015.7
20260507110003 39 335 0.0 0.0 0.00 0.00 0.00 86 1015.6
20260507105501 39 335 0.0 0.0 0.00 0.00 0.00 85 1015.6
20260507105002 39 335 0.0 0.0 0.00 0.00 0.00 86 1015.7
20260507104501 40 335 0.0 0.0 0.00 0.00 0.00 87 1015.7
20260507104100 40 335 0.0 0.0 0.00 0.00 0.00 87 1015.7
20260507103601 39 335 0.0 0.0 0.00 0.00 0.00 86 1015.7
20260507103059 39 335 0.0 0.0 0.00 0.00 0.00 84 1015.7
20260507102559 39 335 0.0 0.0 0.00 0.00 0.00 84 1015.6
20260507102059 39 335 0.0 0.0 0.00 0.00 0.00 86 1015.6
20260507101605 40 335 0.0 0.0 0.00 0.00 0.00 86 1015.6
20260507101058 40 335 0.0 0.0 0.00 0.00 0.00 85 1015.6
20260507100556 40 335 0.0 0.0 0.00 0.00 0.00 85 1015.4
20260507100057 40 335 0.0 0.0 0.00 0.00 0.00 86 1015.4
20260507095556 40 335 0.0 0.0 0.00 0.00 0.00 84 1015.2
20260507095056 41 335 0.0 0.0 0.00 0.00 0.00 82 1015.2
20260507094555 41 335 0.0 0.0 0.00 0.00 0.00 82 1015.3
20260507094056 42 335 0.0 0.0 0.00 0.00 0.00 80 1015.3
20260507093554 42 335 0.0 0.0 0.00 0.00 0.00 79 1015.4
20260507093058 42 335 0.0 0.0 0.00 0.00 0.00 77 1015.3
20260507092556 42 335 0.0 0.0 0.00 0.00 0.00 79 1015.4
20260507092053 42 338 0.0 0.0 0.00 0.00 0.00 80 1015.3
20260507091557 41 338 0.0 0.0 0.00 0.00 0.00 83 1015.3
20260507091053 41 338 0.0 0.0 0.00 0.00 0.00 85 1015.5
20260507090552 41 338 0.0 0.0 0.00 0.00 0.00 85 1015.5
20260507090056 41 338 0.0 0.0 0.00 0.00 0.00 84 1015.5
20260507085551 41 338 0.0 0.0 0.00 0.01 0.00 82 1015.5
20260507085051 42 338 0.0 0.0 0.00 0.01 0.00 80 1015.5
20260507084553 42 338 0.0 0.0 0.00 0.01 0.00 80 1015.5
20260507084050 43 338 0.0 0.0 0.00 0.01 0.00 80 1015.5
20260507083548 43 338 0.0 0.0 0.00 0.01 0.00 77 1015.4
20260507083048 43 338 0.0 0.0 0.00 0.01 0.00 79 1015.4
20260507082547 43 338 0.0 0.0 0.00 0.01 0.00 79 1015.4
20260507082051 43 338 0.0 0.0 0.00 0.01 0.00 79 1015.4
20260507081550 43 338 0.0 0.0 0.00 0.01 0.00 78 1015.3
20260507081047 43 338 0.0 0.0 0.00 0.01 0.00 78 1015.3
20260507080550 43 338 0.0 0.0 0.00 0.01 0.00 79 1015.2
20260507080049 43 338 0.0 0.0 0.00 0.01 0.00 80 1015.2
20260507075546 43 338 0.0 0.0 0.00 0.02 0.00 79 1015.2
20260507075046 43 338 0.0 0.0 0.00 0.02 0.00 78 1015.1
20260507074600 44 338 0.0 0.0 0.00 0.02 0.00 78 1015.0
20260507074045 44 338 0.0 0.0 0.00 0.02 0.00 77 1015.1
20260507073549 44 336 0.0 0.0 0.00 0.02 0.00 78 1015.1
20260507073045 44 336 0.0 0.0 0.00 0.02 0.00 77 1015.1
20260507072545 44 333 0.0 0.0 0.00 0.02 0.00 78 1015.2
20260507072044 44 333 0.0 0.0 0.00 0.02 0.00 78 1015.0
20260507071544 44 333 0.0 0.0 0.00 0.02 0.00 80 1015.1
20260507071044 44 351 0.0 0.0 0.00 0.02 0.00 80 1015.2
20260507070543 44 350 0.0 1.0 0.00 0.02 0.00 80 1015.1
20260507070043 44 350 0.0 2.0 0.00 0.02 0.00 80 1015.2
20260507065542 44 306 0.0 2.0 0.00 0.07 0.00 82 1015.1
20260507065042 44 11 0.0 0.0 0.00 0.07 0.00 82 1015.2
20260507064541 44 12 0.0 0.0 0.00 0.07 0.00 82 1015.2
20260507064041 44 315 0.0 0.0 0.00 0.07 0.00 83 1015.3
20260507063540 44 315 0.0 0.0 0.00 0.07 0.00 84 1015.3
20260507063040 44 315 0.0 0.0 0.00 0.07 0.00 84 1015.1
20260507062540 44 315 0.0 0.0 0.00 0.07 0.00 86 1015.1
20260507062042 44 315 0.0 0.0 0.00 0.07 0.00 88 1015.1
20260507061539 43 315 0.0 0.0 0.00 0.07 0.00 89 1015.1
20260507061038 43 315 0.0 0.0 0.00 0.07 0.00 90 1015.1
20260507060538 43 315 0.0 0.0 0.00 0.07 0.00 91 1015.3
20260507060043 43 315 0.0 0.0 0.00 0.07 0.00 91 1015.2
20260507055538 43 315 0.0 0.0 0.00 0.11 0.00 91 1015.2
20260507055040 43 315 0.0 0.0 0.00 0.11 0.00 91 1015.3
20260507054547 43 315 0.0 0.0 0.00 0.11 0.00 91 1015.3
20260507054036 43 315 0.0 0.0 0.00 0.11 0.00 90 1015.3
20260507053535 43 315 0.0 0.0 0.00 0.11 0.00 90 1015.3
20260507053035 43 315 0.0 0.0 0.00 0.11 0.00 90 1015.2
20260507052533 43 315 0.0 0.0 0.00 0.11 0.00 90 1015.2
20260507052033 43 315 0.0 0.0 0.00 0.11 0.00 89 1015.2
20260507051534 44 315 0.0 0.0 0.00 0.11 0.00 90 1015.2
20260507051034 44 315 0.0 0.0 0.00 0.11 0.00 90 1015.1
20260507050532 44 315 0.0 0.0 0.00 0.11 0.00 91 1015.0
20260507050032 44 315 0.0 0.0 0.00 0.11 0.00 92 1015.0
20260507045532 44 315 0.0 0.0 0.00 0.21 0.00 92 1015.0
20260507045033 44 315 0.0 0.0 0.00 0.21 0.00 92 1015.0
20260507044533 44 315 0.0 0.0 0.00 0.21 0.00 92 1015.0
20260507044030 44 315 0.0 0.0 0.00 0.21 0.00 91 1015.1
20260507043530 44 315 0.0 0.0 0.00 0.21 0.00 91 1015.2
20260507043032 44 315 0.0 0.0 0.00 0.21 0.00 91 1015.0
20260507042529 44 315 0.0 0.0 0.00 0.21 0.00 91 1015.1
20260507042029 44 315 0.0 0.0 0.00 0.21 0.00 90 1015.1
20260507041529 44 315 0.0 0.0 0.00 0.21 0.00 90 1015.1
20260507041028 44 315 0.0 0.0 0.00 0.21 0.00 89 1015.1
20260507040527 44 315 0.0 0.0 0.00 0.21 0.00 89 1015.1
20260507040027 45 315 0.0 0.0 0.00 0.48 0.21 89 1015.1
20260507035525 45 315 0.0 0.0 0.00 0.48 0.21 89 1015.0
20260507035026 45 315 0.0 0.0 0.00 0.48 0.21 89 1015.0
20260507034526 45 315 0.0 0.0 0.00 0.48 0.21 89 1015.0
20260507034026 45 315 0.0 0.0 0.00 0.48 0.21 89 1015.1
20260507033525 45 315 0.0 0.0 0.00 0.48 0.21 89 1015.0
20260507033025 45 315 0.0 0.0 0.00 0.48 0.21 89 1015.1
20260507032524 45 315 0.0 0.0 0.00 0.48 0.21 89 1015.0
20260507032025 45 315 0.0 0.0 0.00 0.48 0.21 89 1015.1
20260507031524 45 315 0.0 0.0 0.00 0.48 0.21 89 1015.1
20260507031027 46 315 0.0 0.0 0.00 0.48 0.21 89 1015.0
20260507030523 46 315 0.0 0.0 0.00 0.48 0.21 89 1015.0
20260507030023 46 315 0.0 0.0 0.00 0.73 0.21 88 1015.0
20260507025522 46 315 0.0 0.0 0.00 0.73 0.21 88 1014.9
20260507025022 46 315 0.0 0.0 0.00 0.73 0.21 87 1014.9
20260507024524 46 315 0.0 0.0 0.00 0.73 0.21 86 1014.9
20260507024025 46 315 0.0 0.0 0.00 0.73 0.21 86 1014.7
20260507023521 47 315 0.0 0.0 0.00 0.73 0.21 86 1014.7
20260507023021 47 315 0.0 0.0 0.00 0.73 0.21 85 1014.7
20260507022521 47 315 0.0 0.0 0.00 0.73 0.21 85 1014.7
20260507022022 47 315 0.0 0.0 0.00 0.73 0.21 84 1014.5
20260507021522 47 315 0.0 0.0 0.00 0.73 0.21 82 1014.7
20260507021020 48 315 0.0 0.0 0.00 0.73 0.21 80 1014.6
20260507020519 48 315 0.0 0.0 0.00 0.73 0.21 78 1014.5
20260507020019 48 315 0.0 0.0 0.00 0.83 0.21 77 1014.6
20260507015518 48 315 0.0 0.0 0.00 0.83 0.21 76 1014.4
20260507015018 49 315 0.0 0.0 0.00 0.83 0.21 77 1014.4
20260507014526 49 315 0.0 0.0 0.00 0.83 0.21 76 1014.4
20260507014017 49 315 0.0 0.0 0.00 0.83 0.21 76 1014.4
20260507013516 49 315 0.0 0.0 0.00 0.83 0.21 76 1014.3
20260507013017 50 315 0.0 0.0 0.00 0.83 0.21 76 1014.3
20260507012516 50 315 0.0 0.0 0.00 0.83 0.21 75 1014.3
20260507012019 50 315 0.0 0.0 0.00 0.83 0.21 74 1014.2
20260507011516 51 315 0.0 0.0 0.00 0.83 0.21 72 1014.2
20260507011015 51 315 0.0 0.0 0.00 0.83 0.21 71 1014.1
20260507010514 51 315 0.0 0.0 0.00 0.83 0.21 71 1014.0
20260507010014 52 315 0.0 0.0 0.00 0.94 0.21 68 1014.0
20260507005514 52 315 0.0 0.0 0.00 0.94 0.21 67 1013.9
20260507005017 53 315 0.0 0.0 0.00 0.94 0.21 64 1014.0
20260507004517 54 315 0.0 0.0 0.00 0.94 0.21 61 1013.9